DW2465 Weather Reports


time (UTC)temp
C
wind
direction
speed
KPH
gust
KPH
rain 1hr
cm
rain 24hr
cm
rain mn
cm
humidity
%
barometer
mb
20260906083018 22 94 0.0 0.0 0.00 0.00 0.00 86 1014.8
20260906081518 22 110 0.0 0.0 0.00 0.00 0.00 85 1014.8
20260906080046 22 110 0.0 0.0 0.00 0.00 0.00 85 1014.7
20260906074543 22 108 0.0 0.0 0.00 0.00 0.00 84 1014.7
20260906073012 22 94 0.0 0.0 0.00 0.00 0.00 84 1014.8
20260906071510 22 111 0.0 0.0 0.00 0.00 0.00 84 1015.1
20260906070007 22 121 0.0 0.0 0.00 0.00 0.00 84 1015.1
20260906064506 22 116 0.0 0.0 0.00 0.00 0.00 86 1015.1
20260906063006 22 119 0.0 0.0 0.00 0.00 0.00 86 1015.4
20260906061505 22 113 0.0 0.0 0.00 0.00 0.00 86 1015.4
20260906060001 22 130 0.0 0.0 0.00 0.00 0.00 86 1015.2
20260906054601 22 130 0.0 0.0 0.00 0.00 0.00 85 1015.2
20260906053059 22 111 0.0 0.0 0.00 0.00 0.00 85 1015.2
20260906051604 22 120 0.0 0.0 0.00 0.00 0.00 86 1015.2
20260906050105 22 139 0.0 0.0 0.00 0.00 0.00 86 1015.4
20260906044554 22 116 0.0 0.0 0.00 0.00 0.00 85 1015.6
20260906043058 22 110 0.0 0.0 0.00 0.00 0.00 85 1015.6
20260906041557 23 92 0.0 0.0 0.00 0.00 0.00 85 1015.7
20260906040051 23 88 0.0 0.0 0.00 0.00 0.00 84 1015.5
20260906034607 23 101 0.0 0.0 0.00 0.00 0.00 84 1015.7
20260906033048 23 130 0.0 0.0 0.00 0.00 0.00 84 1015.7
20260906031551 23 121 0.0 0.0 0.00 0.00 0.00 83 1015.7
20260906030019 23 126 0.0 0.0 0.00 0.00 0.00 83 1015.6
20260906024519 23 146 0.0 0.0 0.00 0.00 0.00 82 1015.5
20260906023047 24 148 0.0 0.0 0.00 0.00 0.00 81 1015.7
20260906021546 24 153 0.0 0.0 0.00 0.00 0.00 81 1015.5
20260906020019 24 174 0.0 0.0 0.00 0.00 0.00 80 1015.1
20260906014525 24 156 0.0 0.0 0.00 0.00 0.00 78 1014.5
20260906013014 25 141 0.0 0.0 0.00 0.00 0.00 77 1014.0
20260906011512 25 148 0.0 0.0 0.00 0.00 0.00 76 1013.5
20260906010011 25 138 0.0 0.0 0.00 0.00 0.00 74 1013.4
20260906004511 26 175 0.0 0.0 0.00 0.00 0.00 72 1013.2
20260906003008 26 166 0.0 0.0 0.00 0.00 0.00 69 1013.2
20260906001508 27 180 0.0 0.0 0.00 0.00 0.00 68 1013.1
20260906000007 27 188 0.0 0.0 0.00 0.00 0.00 66 1012.9
20260905234507 28 94 0.0 0.0 0.00 0.00 0.00 63 1012.9
20260905233007 28 92 0.0 0.0 0.00 0.00 0.00 61 1012.9
20260905231536 28 65 0.0 0.0 0.00 0.00 0.00 61 1012.9
20260905230040 28 89 0.0 0.0 0.00 0.00 0.00 63 1012.7
20260905224533 28 78 0.0 0.0 0.00 0.00 0.00 62 1012.5
20260905223035 28 71 0.0 0.0 0.00 0.00 0.00 63 1012.4
20260905221531 28 113 0.0 0.0 0.00 0.00 0.00 63 1012.1
20260905220032 28 88 0.0 0.0 0.00 0.00 0.00 62 1012.3
20260905214528 28 41 0.0 0.0 0.00 0.00 0.00 63 1012.6
20260905213023 28 119 0.0 0.0 0.00 0.00 0.00 63 1012.8
20260905211521 28 96 0.0 0.0 0.00 0.00 0.00 64 1012.9
20260905210028 27 122 0.0 0.0 0.00 0.00 0.00 68 1013.2
20260905204515 27 74 0.0 0.0 0.00 0.00 0.00 68 1013.3
20260905203012 27 128 0.0 0.0 0.00 0.00 0.00 72 1013.4
20260905201508 26 78 0.0 0.0 0.00 0.00 0.00 75 1013.7
20260905200005 25 43 0.0 0.0 0.00 0.00 0.00 78 1014.0
20260905194533 25 58 0.0 0.0 0.00 0.00 0.00 78 1014.3
20260905193034 25 59 0.0 0.0 0.00 0.00 0.00 80 1014.5
20260905191535 25 59 0.0 0.0 0.00 0.00 0.00 80 1014.5
20260905190027 25 56 0.0 0.0 0.00 0.00 0.00 79 1014.9
20260905184524 24 45 0.0 0.0 0.00 0.00 0.00 82 1015.1
20260905183019 23 344 0.0 0.0 0.00 0.00 0.00 84 1015.1
20260905181519 22 88 0.0 0.0 0.00 0.00 0.00 88 1015.4
20260905180008 22 105 0.0 0.0 0.00 0.00 0.00 90 1015.5
20260905174517 21 128 0.0 0.0 0.00 0.00 0.00 92 1015.5
20260905173002 21 128 0.0 0.0 0.00 0.00 0.00 93 1015.9
20260905171537 20 132 0.0 0.0 0.00 0.00 0.00 94 1015.9
20260905170029 20 110 0.0 0.0 0.00 0.00 0.00 95 1015.9
20260905164525 20 76 0.0 0.0 0.00 0.00 0.00 95 1016.0
20260905163030 20 67 0.0 0.0 0.00 0.00 0.00 95 1016.0
20260905161522 20 111 0.0 0.0 0.00 0.00 0.00 96 1016.1
20260905160020 19 32 0.0 0.0 0.00 0.00 0.00 96 1016.0
20260905154517 19 44 0.0 0.0 0.00 0.00 0.00 96 1015.8
20260905153016 18 34 0.0 0.0 0.00 0.00 0.00 96 1015.9
20260905151515 18 34 0.0 0.0 0.00 0.00 0.00 96 1015.9
20260905150014 18 34 0.0 0.0 0.00 0.00 0.00 96 1015.8
20260905144542 18 34 0.0 0.0 0.00 0.00 0.00 96 1015.4
20260905143043 18 42 0.0 0.0 0.00 0.00 0.00 96 1015.1
20260905141540 18 26 0.0 0.0 0.00 0.00 0.00 96 1015.1
20260905140038 18 15 0.0 0.0 0.00 0.00 0.00 96 1015.2
20260905134538 18 27 0.0 0.0 0.00 0.00 0.00 96 1015.2
20260905133037 18 40 0.0 0.0 0.00 0.00 0.00 96 1015.1
20260905131538 18 314 0.0 0.0 0.00 0.00 0.00 96 1015.3
20260905130032 18 37 0.0 0.0 0.00 0.00 0.00 96 1015.0
20260905124528 18 36 0.0 0.0 0.00 0.00 0.00 96 1014.4
20260905123035 18 80 0.0 0.0 0.00 0.00 0.00 96 1013.9
20260905121517 18 90 0.0 0.0 0.00 0.00 0.00 96 1013.9
20260905120022 18 62 0.0 0.0 0.00 0.00 0.00 96 1014.0
20260905114519 18 28 0.0 0.0 0.00 0.00 0.00 96 1014.1
20260905113015 18 55 0.0 0.0 0.00 0.00 0.00 96 1013.9
20260905111522 18 64 0.0 0.0 0.00 0.00 0.00 96 1013.8
20260905110019 18 71 0.0 0.0 0.00 0.00 0.00 95 1013.6
20260905104521 18 31 0.0 0.0 0.00 0.00 0.00 95 1013.7
20260905103021 17 18 0.0 0.0 0.00 0.00 0.00 95 1013.6
20260905101519 18 58 0.0 0.0 0.00 0.00 0.00 95 1013.5
20260905100021 18 24 0.0 0.0 0.00 0.00 0.00 95 1013.3
20260905094525 18 57 0.0 0.0 0.00 0.00 0.00 95 1013.0
20260905093017 18 350 0.0 0.0 0.00 0.00 0.00 95 1012.5
20260905091552 18 360 0.0 0.0 0.00 0.00 0.00 95 1012.6
20260905090046 18 21 0.0 0.0 0.00 0.00 0.00 95 1013.0
20260905084551 18 340 0.0 0.0 0.00 0.00 0.00 94 1013.4